[[{"header":{"parameterUnit":"m.s-1","parameterCategory":2,"la1":30.2991,"la2":30.254,"lo1":-89.0895,"lo2":-89.0444,"dy":0.0017,"dx":0.0017,"nx":28,"ny":28,"refTime":"2024-08-13T03:00:00:Z","depth":"0","parameterNumber":2,"parameterNumberName":"U-component_of_CURRENTS"},"data":[0,0,0,0,0,0,0,0,0,0,0,0,0,0,0,0,0,0,0,0,0,0,0,0,0,0,0,0,0,0,0,0,0,0,0,0,0,0,0,0,0,0,0,0,0,0,0,0,0,0,0,0,0,0,0,0,0,0,0.2732,0.2733,0,0.2726,0.2726,0.2725,0.2689,0.2689,0.2688,0.2688,0.2659,0.2659,0.2658,0,0,0,0,0,0,0,0,0,0,0,0,0,0.2726,0.2726,0.2732,0.2733,0.2733,0.2726,0.2726,0.2725,0.2689,0.2689,0.2688,0.2688,0.2659,0.2659,0.2658,0,0,0,0,0,0,0,0,0,0,0,0,0,0.272,0.2726,0.2732,0.2718,0.2717,0.2727,0.2726,0.2725,0.2689,0.2689,0.2688,0.2687,0.2659,0.2659,0.2658,0.2667,0,0,0.2656,0.2656,0,0,0,0,0,0,0,0,0.2721,0.272,0.272,0.2719,0.2718,0.2712,0.2713,0.2706,0.2689,0.2694,0.2688,0.2687,0.2679,0.2676,0.267,0.2665,0.2664,0.2656,0.2656,0.2656,0.2655,0,0,0,0,0,0,0,0.2721,0.272,0.2725,0.272,0.2719,0.2717,0.2715,0.2711,0.2686,0.2694,0.2693,0.27,0.2677,0.267,0.2669,0.2664,0.2656,0.2656,0.2655,0.2655,0.2697,0.2698,0,0,0,0,0,0,0.2732,0.272,0.2725,0.2725,0.2724,0.2718,0.2715,0.2711,0.2686,0.2683,0.2701,0.2699,0.2671,0.2669,0.2668,0.2704,0.2656,0.2655,0.2655,0.2695,0.2697,0.2699,0,0,0,0,0,0,0.2732,0.2732,0.2725,0.2727,0.2727,0.2719,0.2714,0.2711,0.2709,0.2693,0.2688,0.2704,0.2671,0.2668,0.2674,0.2701,0.2655,0.2654,0.2693,0.2696,0.2698,0.2758,0,0,0,0,0,0,0.2731,0.2731,0.273,0.2728,0.2728,0.2739,0.2715,0.2711,0.2717,0.2714,0.2694,0.269,0.267,0.2675,0.2673,0.2699,0.2654,0.2692,0.2694,0.2697,0.2755,0.2762,0.2769,0,0,0,0,0,0.2731,0.2725,0.2729,0.273,0.2725,0.274,0.274,0.2728,0.2718,0.2723,0.2711,0.2691,0.2691,0.2676,0.2673,0.27,0.269,0.2694,0.2697,0.2751,0.2761,0.2769,0,0,0,0,0,0,0.2706,0.2722,0.2725,0.2721,0.2738,0.2736,0.2738,0.2737,0.273,0.2725,0.2704,0.27,0.2721,0.2703,0.2686,0.2722,0.269,0.2693,0.2732,0.2741,0.2748,0.2747,0.2653,0,0,0,0,0,0.2708,0.2714,0.2731,0.2729,0.2739,0.2743,0.2747,0.2746,0.2744,0.274,0.2727,0.2721,0.2733,0.2729,0.2731,0.2744,0.2776,0.2762,0.2769,0.2776,0.2775,0.2853,0.2868,0.2709,0.2709,0.2709,0,0,0.2695,0.2708,0.2708,0.2727,0.2735,0.2751,0.2742,0.2754,0.2765,0.2739,0.2741,0.2748,0.2744,0.2764,0.2771,0.2749,0.2845,0.278,0.2785,0.2781,0.2858,0.2874,0.2888,0.2711,0.2711,0.2711,0,0,0.2688,0.2691,0.2702,0.2722,0.2751,0.2757,0.2767,0.2776,0.2777,0.279,0.2785,0.2808,0.2802,0.2815,0.282,0.287,0.2887,0.2871,0.2898,0.2975,0.2989,0.3001,0.3096,0.3116,0.2867,0.2867,0.2867,0,0.2673,0.269,0.2707,0.2731,0.275,0.2764,0.2784,0.279,0.2798,0.2813,0.2796,0.2834,0.283,0.2876,0.289,0.2887,0.2938,0.2864,0.2986,0.2999,0.301,0.3104,0.3125,0.287,0.287,0.287,0.2869,0,0.2682,0.27,0.271,0.2746,0.2767,0.2786,0.2812,0.2829,0.2835,0.2846,0.2892,0.2897,0.2923,0.2932,0.292,0.3003,0.3018,0.2995,0.2965,0.303,0.3124,0.3146,0.2875,0.2874,0.2873,0.2872,0,0,0.2634,0.2703,0.2705,0.2734,0.2779,0.2796,0.283,0.287,0.29,0.2912,0.2961,0.2984,0.2999,0.3006,0.3013,0.3064,0.3201,0.3061,0.3064,0.3157,0.3398,0.3485,0.3516,0.3203,0.3206,0.3208,0.3444,0,0.2637,0.2686,0.2719,0.276,0.279,0.2827,0.2859,0.2898,0.293,0.2977,0.3009,0.3051,0.3025,0.3052,0.3105,0.3175,0.3255,0.3141,0.3318,0.3323,0.3394,0.3543,0.347,0.3679,0.3464,0.3468,0.3471,0,0.2639,0.2675,0.272,0.279,0.2805,0.2826,0.2896,0.2932,0.3006,0.3035,0.3089,0.3117,0.3202,0.3167,0.3333,0.3264,0.3341,0.3389,0.34,0.3468,0.345,0.3572,0.3726,0.3494,0.3503,0.3501,0.3498,0,0.2614,0.2676,0.2714,0.2736,0.281,0.2836,0.2873,0.2945,0.299,0.3081,0.313,0.322,0.3286,0.3381,0.3486,0.3424,0.3683,0.3611,0.3768,0.3775,0.3741,0.3741,0.3689,0.3751,0.375,0.3749,0.3749,0,0.2614,0.2643,0.2702,0.2724,0.2764,0.2824,0.2876,0.2931,0.3024,0.3103,0.3159,0.3253,0.3342,0.3487,0.3557,0.3766,0.3758,0.3823,0.3859,0.3765,0.3764,0.358,0.3485,0.3758,0.3756,0.3755,0.3753,0,0.2592,0.2634,0.2678,0.2742,0.2758,0.2787,0.2865,0.2912,0.3006,0.3122,0.316,0.3315,0.3522,0.3639,0.3832,0.3886,0.3947,0.4117,0.4018,0.4039,0.3946,0.386,0.3848,0.3743,0.4332,0.4336,0.434,0,0.2594,0.2614,0.2671,0.2687,0.2712,0.2756,0.2791,0.2886,0.2953,0.3171,0.3238,0.3467,0.3629,0.3963,0.4124,0.4331,0.4103,0.4362,0.4224,0.3981,0.391,0.3721,0.3616,0.4212,0.4214,0.4215,0.4217,0,0.2591,0.2606,0.264,0.2668,0.2695,0.2723,0.2791,0.2839,0.2991,0.3111,0.3319,0.3472,0.3834,0.4016,0.4307,0.4428,0.4134,0.4404,0.4161,0.3849,0.363,0.3532,0.4016,0.423,0.4229,0.4228,0.4227,0.4227,0.2586,0.2597,0.2635,0.2654,0.2676,0.2698,0.2717,0.2818,0.2936,0.3126,0.3315,0.3509,0.3795,0.4207,0.432,0.436,0.4291,0.421,0.4147,0.399,0.3817,0.4366,0.4607,0.4608,0.4608,0.4609,0.4609,0,0.2583,0.2598,0.2619,0.2641,0.2642,0.2664,0.2724,0.2746,0.287,0.3068,0.3248,0.3482,0.3705,0.3913,0.4119,0.4045,0.3883,0.3905,0.3534,0.3458,0.396,0.3873,0.3954,0.3954,0.3954,0.3955,0.3955,0.3955,0.2589,0.2606,0.2611,0.2606,0.2609,0.2603,0.2623,0.2674,0.2778,0.2915,0.3023,0.3157,0.339,0.3598,0.3609,0.3601,0.3256,0.3223,0.3106,0.3338,0.3355,0.337,0.3257,0.3208,0.3208,0.2469,0.2463,0.2458]},{"header":{"parameterUnit":"m.s-1","parameterCategory":2,"la1":30.2991,"la2":30.254,"lo1":-89.0895,"lo2":-89.0444,"dy":0.0017,"dx":0.0017,"nx":28,"ny":28,"refTime":"2024-08-13T03:00:00:Z","depth":"0","parameterNumber":3,"parameterNumberName":"V-component_of_CURRENTS"},"data":[0,0,0,0,0,0,0,0,0,0,0,0,0,0,0,0,0,0,0,0,0,0,0,0,0,0,0,0,0,0,0,0,0,0,0,0,0,0,0,0,0,0,0,0,0,0,0,0,0,0,0,0,0,0,0,0,0,0,-0.0621,-0.0621,0,-0.0646,-0.0646,-0.0646,-0.0687,-0.0688,-0.0689,-0.069,-0.0753,-0.0754,-0.0755,0,0,0,0,0,0,0,0,0,0,0,0,0,-0.0605,-0.0604,-0.0621,-0.0621,-0.0622,-0.0646,-0.0646,-0.0646,-0.0686,-0.0688,-0.0689,-0.069,-0.0753,-0.0754,-0.0755,0,0,0,0,0,0,0,0,0,0,0,0,0,-0.0616,-0.0604,-0.0621,-0.0647,-0.065,-0.0646,-0.0646,-0.0646,-0.0686,-0.0688,-0.0689,-0.0691,-0.0752,-0.0754,-0.0755,-0.0732,0,0,-0.0758,-0.0759,0,0,0,0,0,0,0,0,-0.0616,-0.0616,-0.0643,-0.0645,-0.0648,-0.0667,-0.0664,-0.0678,-0.0686,-0.0669,-0.069,-0.0691,-0.0729,-0.0732,-0.0729,-0.0735,-0.0738,-0.0758,-0.0759,-0.076,-0.076,0,0,0,0,0,0,0,-0.0615,-0.0616,-0.0628,-0.0643,-0.0647,-0.0657,-0.066,-0.0666,-0.0689,-0.0671,-0.0675,-0.0681,-0.073,-0.0727,-0.0731,-0.0739,-0.0758,-0.0759,-0.076,-0.076,-0.0754,-0.0753,0,0,0,0,0,0,-0.0616,-0.0615,-0.0627,-0.0629,-0.0638,-0.0656,-0.0659,-0.0657,-0.0688,-0.0695,-0.068,-0.0683,-0.0725,-0.0729,-0.0733,-0.0712,-0.076,-0.0761,-0.0761,-0.0755,-0.0753,-0.0753,0,0,0,0,0,0,-0.0615,-0.0616,-0.0626,-0.0625,-0.0628,-0.0655,-0.0652,-0.0657,-0.0659,-0.0695,-0.0702,-0.0678,-0.0726,-0.0732,-0.0734,-0.0715,-0.0761,-0.0762,-0.0756,-0.0754,-0.0753,-0.0669,0,0,0,0,0,0,-0.0614,-0.0615,-0.0607,-0.0625,-0.0628,-0.0612,-0.0651,-0.0657,-0.0662,-0.0666,-0.0696,-0.0703,-0.0728,-0.0732,-0.0735,-0.0718,-0.0763,-0.0757,-0.0755,-0.0753,-0.0673,-0.0665,-0.0658,0,0,0,0,0,-0.0613,-0.0594,-0.0606,-0.0608,-0.0617,-0.0611,-0.0612,-0.0635,-0.0661,-0.0645,-0.0672,-0.0702,-0.0725,-0.0732,-0.0736,-0.0718,-0.0757,-0.0755,-0.0754,-0.0676,-0.0666,-0.0658,0,0,0,0,0,0,-0.0585,-0.0597,-0.0611,-0.0597,-0.06,-0.0619,-0.0607,-0.0629,-0.0636,-0.064,-0.0685,-0.0692,-0.0689,-0.0713,-0.072,-0.0713,-0.0748,-0.0747,-0.0688,-0.0679,-0.0672,-0.0655,-0.0764,0,0,0,0,0,-0.0574,-0.0561,-0.0577,-0.0564,-0.0562,-0.0583,-0.0584,-0.0597,-0.0611,-0.0616,-0.0641,-0.0666,-0.068,-0.0688,-0.0701,-0.0691,-0.072,-0.0685,-0.0678,-0.0671,-0.0661,-0.0696,-0.069,-0.0746,-0.0746,-0.0746,0,0,-0.0562,-0.0565,-0.056,-0.0557,-0.056,-0.0535,-0.0586,-0.0574,-0.0559,-0.0621,-0.0605,-0.0636,-0.0672,-0.0662,-0.0664,-0.0682,-0.0667,-0.0669,-0.0663,-0.0656,-0.0693,-0.0688,-0.0683,-0.0745,-0.0745,-0.0745,0,0,-0.0518,-0.0529,-0.0497,-0.049,-0.0487,-0.0496,-0.0491,-0.0502,-0.0511,-0.05,-0.0546,-0.0564,-0.0581,-0.0603,-0.0619,-0.0578,-0.0626,-0.0587,-0.0536,-0.057,-0.0565,-0.0562,-0.0576,-0.0575,-0.0585,-0.0585,-0.0585,0,-0.0505,-0.0466,-0.0486,-0.0449,-0.0438,-0.0474,-0.0433,-0.044,-0.0453,-0.046,-0.0483,-0.0519,-0.055,-0.0554,-0.0543,-0.056,-0.0584,-0.0566,-0.056,-0.0557,-0.0555,-0.0571,-0.0571,-0.0581,-0.0581,-0.0581,-0.0582,0,-0.0431,-0.0401,-0.0379,-0.0345,-0.0334,-0.0303,-0.0317,-0.0311,-0.0334,-0.0356,-0.0367,-0.041,-0.0439,-0.0452,-0.0484,-0.0485,-0.0508,-0.0545,-0.058,-0.0544,-0.0563,-0.0564,-0.0574,-0.0576,-0.0577,-0.0578,0,0,-0.0401,-0.0339,-0.033,-0.0296,-0.0275,-0.0257,-0.023,-0.0223,-0.0213,-0.0242,-0.0237,-0.0276,-0.0322,-0.0343,-0.0392,-0.0421,-0.0426,-0.0471,-0.0475,-0.0481,-0.0488,-0.0452,-0.045,-0.0469,-0.0469,-0.0469,-0.0501,0,-0.0336,-0.0245,-0.0236,-0.0156,-0.0111,-0.013,-0.0103,-0.0107,-0.0127,-0.0129,-0.0196,-0.0208,-0.0275,-0.0289,-0.0328,-0.0399,-0.0428,-0.0413,-0.0525,-0.0528,-0.0498,-0.045,-0.036,-0.0377,-0.0502,-0.0503,-0.0503,0,-0.0257,-0.021,-0.0116,-0.0059,-0.0042,-0.0006,0.0022,0.0042,0.0017,-0.0002,-0.0042,-0.0101,-0.0144,-0.0209,-0.0312,-0.0301,-0.0383,-0.0444,-0.0448,-0.0445,-0.0494,-0.0437,-0.0375,-0.0563,-0.0505,-0.0505,-0.0505,0,-0.0206,-0.0125,-0.0048,-0.0025,0.0031,0.0059,0.0081,0.0078,0.0099,0.0074,0.0086,0.0001,-0.0019,-0.0137,-0.0258,-0.0292,-0.0365,-0.0434,-0.0479,-0.0477,-0.0436,-0.043,-0.0563,-0.0508,-0.0508,-0.0508,-0.0508,0,-0.0128,-0.0064,-0.0018,0.0028,0.0102,0.0117,0.0181,0.0186,0.0199,0.0248,0.0152,0.0183,-0.0004,-0.0072,-0.0212,-0.0321,-0.0332,-0.0449,-0.0478,-0.0401,-0.0392,-0.0584,-0.0699,-0.0509,-0.0509,-0.0509,-0.0508,0,-0.0055,-0.0024,0.0063,0.0121,0.0138,0.0193,0.0254,0.0298,0.0304,0.037,0.0369,0.0317,0.0253,0.0077,-0.0091,-0.0233,-0.0433,-0.0405,-0.0287,-0.03,-0.053,-0.0641,-0.0768,-0.0825,-0.0467,-0.0466,-0.0465,0,0.0008,0.0059,0.0127,0.0168,0.0203,0.0271,0.032,0.0345,0.0405,0.0476,0.0525,0.0483,0.05,0.028,0.0042,-0.0175,-0.0371,-0.0281,-0.0337,-0.0509,-0.0657,-0.073,-0.0776,-0.025,-0.0248,-0.0246,-0.0244,0,0.0119,0.013,0.0188,0.0259,0.0319,0.0393,0.0473,0.0542,0.0602,0.0701,0.0824,0.0849,0.066,0.0513,0.0203,0.0029,-0.037,-0.0249,-0.0464,-0.0515,-0.0566,-0.0644,-0.0265,-0.0227,-0.0228,-0.023,-0.0231,-0.0231,0.0196,0.0243,0.0296,0.0363,0.0425,0.0528,0.0636,0.0754,0.0914,0.1141,0.1112,0.1275,0.0934,0.0555,0.0282,-0.0199,-0.0256,-0.0367,-0.049,-0.0552,-0.0596,-0.0163,-0.0139,-0.014,-0.0141,-0.0142,-0.0143,0,0.0302,0.0335,0.0399,0.0488,0.0573,0.0588,0.075,0.0906,0.1166,0.1404,0.1584,0.1558,0.1179,0.0695,0.0023,-0.0367,-0.0514,-0.0609,-0.0719,-0.0759,-0.0397,-0.0377,-0.0357,-0.0357,-0.0357,-0.0357,-0.0357,-0.0356,0.0367,0.0441,0.0456,0.0603,0.0673,0.0847,0.097,0.1219,0.1439,0.1818,0.1998,0.2058,0.1617,0.0374,-0.0496,-0.0704,-0.0994,-0.1025,-0.1225,-0.102,-0.1009,-0.0998,-0.1008,-0.112,-0.1121,-0.1488,-0.1492,-0.1496]}],[{"header":{"parameterUnit":"m.s-1","parameterCategory":2,"la1":30.2991,"la2":30.254,"lo1":-89.0895,"lo2":-89.0444,"dy":0.0017,"dx":0.0017,"nx":28,"ny":28,"refTime":"2024-08-13T03:00:00:Z","depth":"2","parameterNumber":2,"parameterNumberName":"U-component_of_CURRENTS"},"data":[0,0,0,0,0,0,0,0,0,0,0,0,0,0,0,0,0,0,0,0,0,0,0,0,0,0,0,0,0,0,0,0,0,0,0,0,0,0,0,0,0,0,0,0,0,0,0,0,0,0,0,0,0,0,0,0,0,0,0.2732,0.2733,0,0.2813,0.2814,0.2815,0.2842,0.2842,0.2841,0.2841,0.2906,0.2908,0.291,0,0,0,0,0,0,0,0,0,0,0,0,0,0.2646,0.2647,0.2732,0.2733,0.2734,0.2813,0.2814,0.2815,0.2842,0.2842,0.2841,0.2841,0.2905,0.2907,0.291,0,0,0,0,0,0,0,0,0,0,0,0,0,0.2699,0.2647,0.2732,0.2758,0.2762,0.2813,0.2814,0.2815,0.2842,0.2842,0.2841,0.2841,0.2904,0.2907,0.291,0.2933,0,0,0.2919,0.292,0,0,0,0,0,0,0,0,0.2696,0.2702,0.2753,0.2757,0.276,0.2818,0.2807,0.2854,0.2842,0.281,0.2841,0.2841,0.2876,0.2881,0.2895,0.2936,0.2939,0.2919,0.2921,0.2922,0.2923,0,0,0,0,0,0,0,0.2692,0.2699,0.2762,0.2754,0.2759,0.2782,0.2788,0.2816,0.2842,0.2812,0.2815,0.2827,0.2878,0.2892,0.2897,0.294,0.2919,0.2921,0.2923,0.2924,0.305,0.3052,0,0,0,0,0,0,0.2683,0.2695,0.276,0.2765,0.2728,0.2784,0.2791,0.2799,0.2842,0.2849,0.2827,0.2828,0.2888,0.2894,0.2899,0.2946,0.2922,0.2925,0.2926,0.3048,0.305,0.3052,0,0,0,0,0,0,0.2681,0.2688,0.2756,0.2733,0.2744,0.2785,0.2794,0.28,0.2812,0.2854,0.286,0.2831,0.2888,0.2895,0.2939,0.2948,0.2926,0.2928,0.3046,0.3049,0.3051,0.3029,0,0,0,0,0,0,0.2678,0.2687,0.2686,0.2733,0.2745,0.2782,0.2795,0.2802,0.2821,0.2823,0.286,0.2866,0.2888,0.2934,0.2941,0.2952,0.2931,0.3044,0.3048,0.305,0.3028,0.3031,0.3033,0,0,0,0,0,0.2675,0.2676,0.2686,0.2694,0.2744,0.2783,0.2791,0.2819,0.2821,0.2827,0.2865,0.2864,0.2959,0.2938,0.2946,0.2957,0.3043,0.3047,0.305,0.3027,0.303,0.3033,0,0,0,0,0,0,0.2635,0.2681,0.2692,0.2706,0.2739,0.2788,0.2795,0.2815,0.2849,0.2848,0.2883,0.2893,0.2942,0.2956,0.2932,0.3007,0.3002,0.3007,0.2981,0.2985,0.2987,0.2998,0.2933,0,0,0,0,0,0.2627,0.2637,0.2687,0.2693,0.2711,0.2751,0.2768,0.2788,0.2827,0.284,0.2865,0.2907,0.2965,0.2977,0.3025,0.3052,0.3104,0.3069,0.3071,0.3073,0.309,0.3188,0.32,0.3064,0.3064,0.3064,0,0,0.2609,0.2637,0.264,0.2685,0.271,0.2739,0.276,0.2783,0.281,0.2842,0.2873,0.2919,0.2981,0.3028,0.3048,0.3034,0.3138,0.3078,0.3078,0.3095,0.3193,0.3206,0.3218,0.3067,0.3066,0.3066,0,0,0.2584,0.2607,0.261,0.2642,0.2684,0.2719,0.2724,0.2769,0.2792,0.2833,0.2881,0.2936,0.2985,0.3045,0.3083,0.3128,0.316,0.3131,0.3134,0.3228,0.324,0.3251,0.3324,0.3342,0.3116,0.3116,0.3116,0,0.2559,0.2579,0.2616,0.2636,0.2663,0.2708,0.2728,0.2765,0.2816,0.2849,0.2838,0.2968,0.3005,0.3106,0.3121,0.3134,0.3185,0.311,0.323,0.3243,0.3254,0.3327,0.3347,0.3116,0.3116,0.3116,0.3116,0,0.2548,0.2566,0.2571,0.2615,0.2648,0.267,0.2733,0.2765,0.2793,0.2837,0.2925,0.2988,0.3067,0.3085,0.3115,0.322,0.3229,0.3231,0.3216,0.3267,0.334,0.3361,0.3115,0.3115,0.3115,0.3116,0,0,0.2493,0.2551,0.2554,0.2572,0.2642,0.2666,0.2724,0.28,0.2846,0.2892,0.2962,0.306,0.3092,0.314,0.3185,0.3255,0.3372,0.3268,0.3273,0.3329,0.3572,0.3458,0.347,0.3391,0.3395,0.3398,0.3585,0,0.2474,0.2498,0.2543,0.2572,0.2595,0.2668,0.272,0.2793,0.2859,0.2933,0.3021,0.3104,0.3114,0.3156,0.3231,0.3353,0.3429,0.3321,0.3526,0.3533,0.3415,0.3491,0.3073,0.3195,0.3606,0.361,0.3612,0,0.2456,0.2478,0.25,0.2565,0.2582,0.2609,0.2713,0.2767,0.2897,0.2949,0.3047,0.3124,0.3257,0.3244,0.3467,0.3396,0.3488,0.3564,0.3573,0.3492,0.3458,0.3216,0.3218,0.3648,0.3645,0.3643,0.364,0,0.2404,0.2452,0.2466,0.2487,0.2567,0.2596,0.2645,0.2765,0.2826,0.2969,0.3025,0.3187,0.3267,0.3419,0.3572,0.3536,0.3807,0.3776,0.3763,0.3756,0.3455,0.3414,0.3941,0.3941,0.3941,0.394,0.3939,0,0.2378,0.239,0.2437,0.2445,0.2475,0.2545,0.2605,0.2685,0.2804,0.289,0.302,0.313,0.3316,0.3485,0.3613,0.3754,0.3848,0.3791,0.3807,0.3433,0.339,0.3824,0.3808,0.3947,0.3945,0.3944,0.3943,0,0.2328,0.2357,0.2373,0.2432,0.2449,0.2469,0.2559,0.2607,0.2726,0.2846,0.2896,0.3112,0.3342,0.3524,0.3787,0.3785,0.3951,0.3978,0.3516,0.3473,0.3826,0.3807,0.398,0.3978,0.3976,0.3974,0.3973,0,0.2311,0.2309,0.2344,0.2344,0.2365,0.2405,0.2436,0.2554,0.2614,0.285,0.2903,0.3155,0.3306,0.3611,0.3635,0.3796,0.3996,0.3547,0.3396,0.3837,0.3836,0.382,0.3804,0.2994,0.2985,0.2977,0.2971,0,0.2275,0.2276,0.2279,0.2281,0.2292,0.2318,0.2372,0.2412,0.2573,0.2688,0.2881,0.3022,0.3213,0.3174,0.3332,0.3388,0.3475,0.3398,0.4009,0.304,0.292,0.2915,0.2929,0.2904,0.2911,0.2916,0.2919,0.2922,0.2236,0.2221,0.2212,0.2208,0.2218,0.2223,0.2239,0.2322,0.2419,0.2539,0.2708,0.2797,0.2803,0.283,0.284,0.2859,0.3091,0.3004,0.3022,0.305,0.2893,0.2776,0.2703,0.2708,0.2713,0.2717,0.272,0,0.2189,0.2165,0.2147,0.2127,0.2102,0.2145,0.2192,0.2181,0.2276,0.2359,0.2441,0.2214,0.2176,0.2334,0.2156,0.2162,0.2094,0.2199,0.2055,0.2119,0.2178,0.1973,0.1542,0.154,0.1538,0.1536,0,0,0.2161,0.211,0.209,0.2019,0.2011,0.1984,0.2005,0.1981,0.2015,0.1984,0.1981,0.2014,0.2154,0.178,0.1717,0.1628,0.1883,0.158,0.2496,0.2383,0.244,0.2587,0.2338,0,0,0,0,0]},{"header":{"parameterUnit":"m.s-1","parameterCategory":2,"la1":30.2991,"la2":30.254,"lo1":-89.0895,"lo2":-89.0444,"dy":0.0017,"dx":0.0017,"nx":28,"ny":28,"refTime":"2024-08-13T03:00:00:Z","depth":"2","parameterNumber":3,"parameterNumberName":"V-component_of_CURRENTS"},"data":[0,0,0,0,0,0,0,0,0,0,0,0,0,0,0,0,0,0,0,0,0,0,0,0,0,0,0,0,0,0,0,0,0,0,0,0,0,0,0,0,0,0,0,0,0,0,0,0,0,0,0,0,0,0,0,0,0,0,0.0685,0.0684,0,0.0597,0.0595,0.0594,0.049,0.0488,0.0487,0.0485,0.0324,0.0321,0.0318,0,0,0,0,0,0,0,0,0,0,0,0,0,0.0746,0.0745,0.0685,0.0684,0.0683,0.0597,0.0595,0.0594,0.049,0.0488,0.0487,0.0485,0.0325,0.0321,0.0318,0,0,0,0,0,0,0,0,0,0,0,0,0,0.0694,0.0745,0.0685,0.0622,0.0615,0.0597,0.0595,0.0594,0.049,0.0488,0.0486,0.0484,0.0326,0.0322,0.0317,0.0335,0,0,0.0304,0.0302,0,0,0,0,0,0,0,0,0.0697,0.0691,0.0632,0.0626,0.0619,0.0553,0.0557,0.0504,0.0491,0.0537,0.0485,0.0483,0.0396,0.0386,0.0373,0.0327,0.032,0.0304,0.0301,0.0299,0.0298,0,0,0,0,0,0,0,0.07,0.0694,0.0649,0.0631,0.0623,0.0592,0.0582,0.0547,0.0478,0.0532,0.0525,0.0518,0.0391,0.0378,0.0369,0.0318,0.0304,0.03,0.0297,0.0295,0.0225,0.0225,0,0,0,0,0,0,0.0717,0.0698,0.0652,0.0646,0.0655,0.0592,0.0581,0.0575,0.0479,0.0463,0.052,0.0513,0.0387,0.0374,0.0362,0.0339,0.0299,0.0295,0.0292,0.0224,0.0225,0.0226,0,0,0,0,0,0,0.0719,0.0714,0.0655,0.0671,0.0661,0.0594,0.0588,0.0575,0.0545,0.0471,0.0453,0.0501,0.0384,0.0369,0.0329,0.0333,0.0293,0.0289,0.0223,0.0224,0.0225,0.0315,0,0,0,0,0,0,0.0721,0.0716,0.0717,0.0672,0.0661,0.0648,0.059,0.0575,0.0545,0.0535,0.045,0.0433,0.0381,0.0336,0.0325,0.0326,0.0286,0.0222,0.0223,0.0225,0.0311,0.0319,0.0326,0,0,0,0,0,0.0724,0.0734,0.0718,0.0712,0.0666,0.0649,0.0641,0.0584,0.0547,0.0546,0.0486,0.0435,0.0336,0.0334,0.032,0.032,0.0221,0.0223,0.0225,0.0308,0.0318,0.0326,0,0,0,0,0,0,0.076,0.0724,0.0704,0.0703,0.0682,0.0632,0.0624,0.0589,0.0543,0.0521,0.0449,0.043,0.0397,0.0352,0.0351,0.0304,0.0269,0.0268,0.0337,0.0345,0.0353,0.0363,0.0282,0,0,0,0,0,0.0774,0.0769,0.0735,0.0735,0.0726,0.0677,0.0661,0.0624,0.0579,0.0555,0.0494,0.0434,0.04,0.0367,0.0327,0.0304,0.0264,0.0294,0.0302,0.0308,0.0308,0.0269,0.0273,0.0231,0.0231,0.0231,0,0,0.0788,0.0768,0.0765,0.0743,0.0717,0.0716,0.0661,0.0639,0.0631,0.0546,0.0508,0.0461,0.0402,0.0376,0.0356,0.0332,0.0301,0.031,0.0317,0.0312,0.0271,0.0275,0.0279,0.0232,0.0232,0.0232,0,0,0.0814,0.0798,0.0801,0.0791,0.076,0.0739,0.0736,0.0684,0.0652,0.0623,0.0563,0.0525,0.0455,0.0421,0.0396,0.0423,0.0349,0.0399,0.0434,0.0397,0.04,0.0402,0.0364,0.0362,0.0394,0.0394,0.0394,0,0.0829,0.083,0.0802,0.0804,0.0803,0.0754,0.0764,0.0738,0.0677,0.0663,0.0619,0.0535,0.0483,0.0465,0.0463,0.0441,0.0399,0.0406,0.0407,0.0408,0.0409,0.0368,0.0365,0.0399,0.0398,0.0398,0.0397,0,0.0854,0.0857,0.0862,0.0852,0.0854,0.0853,0.0825,0.0809,0.0765,0.0732,0.0694,0.0625,0.0568,0.0552,0.0508,0.049,0.0453,0.0429,0.0386,0.0418,0.0374,0.0369,0.0405,0.0404,0.0402,0.0401,0,0,0.0871,0.0877,0.0875,0.0889,0.0878,0.0883,0.0887,0.088,0.0882,0.0811,0.0805,0.0735,0.0677,0.0644,0.0585,0.0547,0.0516,0.0483,0.0478,0.0449,0.0422,0.039,0.0381,0.0482,0.0481,0.0481,0.0392,0,0.0894,0.0916,0.0915,0.095,0.0965,0.0951,0.0969,0.0956,0.0927,0.0908,0.0836,0.0796,0.0718,0.0681,0.0634,0.0549,0.0504,0.0542,0.0391,0.0387,0.0358,0.0375,0.0312,0.0226,0.0386,0.0385,0.0385,0,0.0909,0.0928,0.0959,0.1007,0.1013,0.1026,0.1054,0.1061,0.1038,0.101,0.0955,0.0886,0.0814,0.0745,0.0606,0.0625,0.0524,0.0458,0.0453,0.0386,0.0345,0.0217,0.021,0.0375,0.0376,0.0377,0.0377,0,0.0925,0.0962,0.0991,0.1002,0.1042,0.1055,0.1074,0.1077,0.1092,0.1056,0.1047,0.0956,0.0894,0.0769,0.0611,0.0594,0.0469,0.0432,0.0315,0.0311,0.021,0.0198,0.0338,0.0338,0.0338,0.0338,0.0338,0,0.0947,0.0971,0.0995,0.101,0.1059,0.1077,0.1119,0.1126,0.1138,0.117,0.1078,0.1081,0.0891,0.0793,0.0645,0.0467,0.0486,0.0321,0.0287,0.0241,0.0234,0.0322,0.0322,0.0335,0.0336,0.0336,0.0337,0,0.0946,0.0961,0.1003,0.1047,0.1059,0.1087,0.1142,0.1181,0.1181,0.1217,0.12,0.115,0.1029,0.085,0.0661,0.051,0.0352,0.0285,0.0245,0.0207,0.0206,0.0211,0.0133,0.0131,0.0129,0.0128,0.0127,0,0.0942,0.096,0.1014,0.1041,0.1052,0.1096,0.1138,0.118,0.1238,0.1277,0.1311,0.1211,0.1176,0.0896,0.0586,0.0313,0.0345,0.0107,0.0067,0.0211,0.0185,0.0193,0.02,-0.0036,-0.0038,-0.004,-0.0041,0,0.0941,0.0954,0.0989,0.1038,0.108,0.1151,0.1218,0.1282,0.1352,0.1414,0.1488,0.1463,0.1155,0.0851,0.0466,0.0291,0.0143,0.006,0.0212,0.0039,0.0049,0.0025,0.0038,-0.0058,-0.0057,-0.0056,-0.0055,-0.0054,0.0924,0.095,0.0988,0.104,0.1097,0.1193,0.1267,0.139,0.1516,0.1594,0.1577,0.1505,0.1142,0.0599,0.0305,-0.0014,0.0014,-0.0102,-0.0095,-0.0086,-0.0076,-0.0068,-0.0196,-0.0196,-0.0195,-0.0194,-0.0193,0,0.0897,0.0935,0.099,0.1061,0.1128,0.1156,0.1315,0.1432,0.1618,0.1629,0.1649,0.1264,0.0913,0.0571,0.0026,-0.0261,-0.0277,-0.0292,-0.0274,-0.0258,-0.0243,-0.0239,-0.0404,-0.0404,-0.0405,-0.0405,0,0,0.0879,0.0919,0.0962,0.106,0.1112,0.123,0.1328,0.1527,0.1611,0.1652,0.1548,0.1334,0.0933,0.0504,0.0113,-0.0143,-0.0114,-0.0178,0.0004,0.0083,0.0102,-0.0139,-0.0115,0,0,0,0,0]}],[{"header":{"parameterUnit":"m.s-1","parameterCategory":2,"la1":30.2991,"la2":30.254,"lo1":-89.0895,"lo2":-89.0444,"dy":0.0017,"dx":0.0017,"nx":28,"ny":28,"refTime":"2024-08-13T03:00:00:Z","depth":"4","parameterNumber":2,"parameterNumberName":"U-component_of_CURRENTS"},"data":[0,0,0,0,0,0,0,0,0,0,0,0,0,0,0,0,0,0,0,0,0,0,0,0,0,0,0,0,0,0,0,0,0,0,0,0,0,0,0,0,0,0,0,0,0,0,0,0,0,0,0,0,0,0,0,0,0,0,0.0703,0.0704,0,0.0739,0.0739,0.074,0.0798,0.08,0.0801,0.0802,0.0851,0.0851,0.0851,0,0,0,0,0,0,0,0,0,0,0,0,0,0.0661,0.0661,0.0703,0.0704,0.0705,0.0739,0.074,0.074,0.0798,0.08,0.0801,0.0803,0.0851,0.0851,0.0851,0,0,0,0,0,0,0,0,0,0,0,0,0,0.0684,0.0661,0.0703,0.0739,0.0743,0.0739,0.074,0.074,0.0798,0.08,0.0801,0.0803,0.0851,0.0851,0.0852,0.0815,0,0,0.0852,0.0852,0,0,0,0,0,0,0,0,0.0683,0.0685,0.0733,0.0737,0.0741,0.0768,0.0743,0.0766,0.0797,0.0775,0.0802,0.0804,0.0824,0.0827,0.0827,0.0818,0.082,0.0852,0.0852,0.0852,0.0852,0,0,0,0,0,0,0,0.0681,0.0684,0.0716,0.0734,0.0739,0.0745,0.0751,0.0747,0.0787,0.0777,0.0782,0.0788,0.0827,0.0826,0.0828,0.082,0.0852,0.0852,0.0853,0.0853,0.0966,0.0969,0,0,0,0,0,0,0.068,0.0682,0.0714,0.0717,0.0718,0.0745,0.0751,0.0756,0.0787,0.0794,0.0787,0.0791,0.0825,0.0828,0.083,0.0945,0.0852,0.0853,0.0853,0.0963,0.0967,0.097,0,0,0,0,0,0,0.0679,0.0682,0.0713,0.0702,0.0707,0.0744,0.0749,0.0756,0.0795,0.0795,0.0802,0.0824,0.0826,0.083,0.0859,0.0942,0.0853,0.0853,0.096,0.0964,0.0968,0.1075,0,0,0,0,0,0,0.0677,0.0681,0.0698,0.0702,0.0708,0.0731,0.0747,0.0755,0.0795,0.0802,0.0828,0.0833,0.0828,0.0858,0.0859,0.0941,0.0853,0.0956,0.0962,0.0967,0.1068,0.1083,0.1095,0,0,0,0,0,0.0675,0.0686,0.0699,0.0704,0.0725,0.0732,0.0735,0.0766,0.0795,0.081,0.0834,0.0834,0.0896,0.0859,0.0859,0.0944,0.0954,0.096,0.0967,0.1062,0.108,0.1095,0,0,0,0,0,0,0.0671,0.0693,0.0707,0.0724,0.0738,0.0743,0.0768,0.0785,0.0814,0.0837,0.084,0.0845,0.0913,0.0902,0.0863,0.0996,0.0937,0.0944,0.101,0.1027,0.104,0.1027,0.0853,0,0,0,0,0,0.0677,0.0694,0.071,0.0722,0.0741,0.0761,0.0776,0.0795,0.0814,0.0832,0.086,0.0896,0.0931,0.0956,0.0976,0.1022,0.0976,0.1088,0.1102,0.1113,0.1105,0.1105,0.1117,0.0991,0.0991,0.0991,0,0,0.0677,0.0691,0.0702,0.0724,0.0745,0.0775,0.0776,0.0808,0.0835,0.0829,0.0898,0.0935,0.0952,0.1021,0.1054,0.1028,0.1123,0.1121,0.1131,0.1116,0.1113,0.1125,0.1135,0.0996,0.0995,0.0994,0,0,0.0683,0.0705,0.073,0.0747,0.0784,0.08,0.0819,0.0857,0.0883,0.0936,0.0958,0.1015,0.1085,0.11,0.1119,0.1207,0.119,0.1273,0.1336,0.1337,0.1347,0.1354,0.1292,0.1294,0.1286,0.1286,0.1286,0,0.0698,0.0713,0.0736,0.0765,0.0796,0.082,0.0862,0.0875,0.092,0.0955,0.0979,0.1103,0.1109,0.1178,0.1238,0.1234,0.1233,0.1271,0.1352,0.1359,0.1365,0.13,0.13,0.1292,0.1291,0.1291,0.129,0,0.0697,0.074,0.0758,0.0811,0.085,0.0877,0.0916,0.0962,0.1022,0.1053,0.1154,0.1171,0.126,0.129,0.1299,0.1383,0.1366,0.1362,0.1303,0.1384,0.131,0.1308,0.1301,0.1298,0.1297,0.1295,0,0,0.0688,0.0747,0.0773,0.0804,0.0879,0.0904,0.0973,0.1035,0.1088,0.1161,0.1239,0.132,0.1381,0.1403,0.1435,0.1437,0.147,0.1457,0.1454,0.1379,0.1467,0.1396,0.1385,0.1524,0.1525,0.1525,0.139,0,0.0699,0.0753,0.08,0.0878,0.0909,0.0975,0.1034,0.11,0.1171,0.1246,0.1286,0.1391,0.1409,0.1503,0.1508,0.1492,0.1478,0.1505,0.1412,0.1407,0.1323,0.1385,0.1529,0.1388,0.1387,0.1387,0.1386,0,0.0704,0.0735,0.0821,0.0904,0.0935,0.103,0.1152,0.1199,0.1296,0.1358,0.147,0.1518,0.1579,0.1576,0.1555,0.1603,0.1558,0.1504,0.1498,0.1389,0.1334,0.1297,0.1382,0.1382,0.1382,0.1383,0.1383,0,0.0679,0.0763,0.0835,0.0862,0.0963,0.1076,0.1173,0.1291,0.1329,0.1486,0.1555,0.162,0.1687,0.1652,0.1569,0.1618,0.147,0.1504,0.1361,0.1351,0.1403,0.1396,0.1457,0.1457,0.1458,0.1458,0.1459,0,0.0663,0.0715,0.0857,0.09,0.1018,0.1117,0.1285,0.1365,0.1478,0.1502,0.1662,0.1648,0.1731,0.1655,0.1573,0.1437,0.1475,0.1364,0.1327,0.1449,0.1449,0.1398,0.1394,0.1453,0.1454,0.1455,0.1456,0,0.0626,0.0701,0.077,0.0935,0.1028,0.1132,0.137,0.1432,0.1575,0.1615,0.1682,0.1715,0.166,0.1619,0.1508,0.1442,0.1299,0.1222,0.1293,0.1261,0.1181,0.1184,0.1114,0.1111,0.1108,0.1105,0.1104,0,0.0606,0.0649,0.0827,0.0922,0.1045,0.124,0.1364,0.1505,0.1526,0.1564,0.1516,0.1555,0.1556,0.1319,0.13,0.1166,0.1143,0.1088,0.1218,0.1183,0.1154,0.1161,0.1167,0.1099,0.1098,0.1098,0.1097,0,0.0562,0.0647,0.0721,0.0922,0.1095,0.1177,0.1351,0.1345,0.1409,0.154,0.1381,0.1358,0.1278,0.1214,0.1149,0.1019,0.1157,0.106,0.1068,0.119,0.1164,0.1139,0.1149,0.1087,0.1089,0.109,0.109,0,0.0558,0.0576,0.0723,0.0875,0.1045,0.1053,0.1162,0.1185,0.1205,0.1241,0.1134,0.1138,0.1186,0.1119,0.0972,0.0953,0.0989,0.0988,0.1001,0.1012,0.1053,0.1009,0.0849,0,0,0,0,0,0.053,0.0536,0.0675,0.0783,0.0939,0.0988,0.109,0.1152,0.1202,0.1073,0.1114,0.1018,0.0957,0.0918,0.0886,0.0935,0.0979,0.0894,0.0982,0.1034,0.1045,0.1109,0,0,0,0,0,0,0.0499,0.0595,0.0609,0.0678,0.0727,0.0806,0.0825,0.0856,0.0793,0.0881,0.0842,0.0964,0.0901,0.0952,0.0855,0.0861,0.0902,0.0922,0.092,0.1027,0.1037,0.1046,0.1116,0,0,0,0,0]},{"header":{"parameterUnit":"m.s-1","parameterCategory":2,"la1":30.2991,"la2":30.254,"lo1":-89.0895,"lo2":-89.0444,"dy":0.0017,"dx":0.0017,"nx":28,"ny":28,"refTime":"2024-08-13T03:00:00:Z","depth":"4","parameterNumber":3,"parameterNumberName":"V-component_of_CURRENTS"},"data":[0,0,0,0,0,0,0,0,0,0,0,0,0,0,0,0,0,0,0,0,0,0,0,0,0,0,0,0,0,0,0,0,0,0,0,0,0,0,0,0,0,0,0,0,0,0,0,0,0,0,0,0,0,0,0,0,0,0,0.0055,0.0054,0,-0.0002,-0.0002,-0.0003,-0.0024,-0.0023,-0.0023,-0.0022,-0.011,-0.0113,-0.0116,0,0,0,0,0,0,0,0,0,0,0,0,0,0.009,0.009,0.0055,0.0054,0.0054,-0.0001,-0.0002,-0.0004,-0.0024,-0.0023,-0.0022,-0.0022,-0.0109,-0.0113,-0.0116,0,0,0,0,0,0,0,0,0,0,0,0,0,0.0056,0.0089,0.0055,0.004,0.0038,-0.0001,-0.0002,-0.0004,-0.0024,-0.0023,-0.0022,-0.0022,-0.0108,-0.0112,-0.0117,-0.0157,0,0,-0.0129,-0.0131,0,0,0,0,0,0,0,0,0.0058,0.0054,0.0042,0.0041,0.0039,-0.0002,-0.0022,-0.0056,-0.0024,-0.0004,-0.0022,-0.0021,-0.0076,-0.0082,-0.0099,-0.0161,-0.0165,-0.013,-0.0132,-0.0134,-0.0135,0,0,0,0,0,0,0,0.006,0.0056,0.0029,0.0042,0.004,0.0017,0.0013,-0.0029,-0.0046,-0.0005,-0.0006,-0.0008,-0.0077,-0.0095,-0.0101,-0.0166,-0.013,-0.0133,-0.0136,-0.0138,-0.0277,-0.0278,0,0,0,0,0,0,0.0075,0.0058,0.0031,0.0028,0.0054,0.0016,0.0012,0.0008,-0.0045,-0.0051,-0.0008,-0.0008,-0.0088,-0.0096,-0.0104,-0.016,-0.0134,-0.0138,-0.014,-0.0276,-0.0277,-0.0278,0,0,0,0,0,0,0.0076,0.0073,0.0034,0.0045,0.0038,0.0016,0.0011,0.0006,-0.0009,-0.0046,-0.0053,-0.0017,-0.0087,-0.0098,-0.0142,-0.0163,-0.014,-0.0144,-0.0274,-0.0276,-0.0278,-0.0268,0,0,0,0,0,0,0.0077,0.0074,0.0072,0.0046,0.0038,0.0011,0.001,0.0005,-0.0009,-0.001,-0.0057,-0.0064,-0.0088,-0.0135,-0.0146,-0.0168,-0.0147,-0.0273,-0.0275,-0.0277,-0.0267,-0.0269,-0.0271,0,0,0,0,0,0.0079,0.0076,0.0073,0.0069,0.0039,0.0011,0.0004,-0.0012,-0.001,-0.0022,-0.0051,-0.0063,-0.0157,-0.014,-0.0152,-0.0176,-0.0272,-0.0274,-0.0277,-0.0266,-0.0269,-0.0271,0,0,0,0,0,0,0.0087,0.0073,0.0069,0.0062,0.0039,0.0009,0.0001,-0.0012,-0.0045,-0.0044,-0.0078,-0.0089,-0.0138,-0.0159,-0.0139,-0.0223,-0.0217,-0.0222,-0.0204,-0.0208,-0.021,-0.019,-0.015,0,0,0,0,0,0.009,0.0086,0.0065,0.0057,0.0051,0.0025,0.0012,-0.0,-0.0029,-0.0042,-0.0078,-0.0117,-0.0162,-0.0183,-0.0226,-0.027,-0.0282,-0.0294,-0.0296,-0.0298,-0.0291,-0.034,-0.0346,-0.0287,-0.0287,-0.0287,0,0,0.0089,0.0083,0.0079,0.0058,0.0043,0.0029,0.0018,0.0001,-0.0017,-0.0049,-0.0088,-0.0129,-0.0176,-0.0227,-0.0251,-0.0244,-0.0319,-0.0301,-0.0302,-0.0294,-0.0344,-0.0349,-0.0354,-0.0289,-0.0288,-0.0288,0,0,0.0092,0.0084,0.0084,0.0067,0.0049,0.0031,0.0028,-0.0006,-0.0024,-0.0068,-0.0098,-0.0147,-0.0211,-0.0251,-0.0278,-0.032,-0.0332,-0.0336,-0.0329,-0.0377,-0.0382,-0.0386,-0.0392,-0.0397,-0.0333,-0.0333,-0.0333,0,0.0095,0.0091,0.0077,0.0071,0.0059,0.0036,0.0027,-0.0001,-0.0049,-0.007,-0.0076,-0.0184,-0.0224,-0.0288,-0.03,-0.0325,-0.0337,-0.0312,-0.0378,-0.0383,-0.0388,-0.0392,-0.0398,-0.0333,-0.0333,-0.0333,-0.0333,0,0.0096,0.0091,0.009,0.0077,0.0058,0.0046,0.0015,-0.0012,-0.0037,-0.0069,-0.0137,-0.0198,-0.0251,-0.0286,-0.0304,-0.0364,-0.0355,-0.0377,-0.0365,-0.0393,-0.0396,-0.0402,-0.0333,-0.0333,-0.0333,-0.0333,0,0,0.0116,0.0096,0.0099,0.0092,0.0062,0.0047,0.0018,-0.002,-0.0036,-0.0099,-0.0134,-0.0223,-0.0245,-0.0277,-0.0318,-0.0368,-0.0409,-0.0379,-0.0381,-0.0371,-0.0484,-0.0448,-0.045,-0.0443,-0.0445,-0.0446,-0.0465,0,0.0126,0.0125,0.0106,0.0093,0.0087,0.0052,0.0029,-0.0012,-0.0051,-0.0093,-0.0164,-0.0202,-0.0244,-0.0257,-0.0321,-0.0396,-0.0428,-0.04,-0.0469,-0.047,-0.0426,-0.0458,-0.0451,-0.047,-0.0471,-0.0472,-0.0473,0,0.0144,0.0137,0.0141,0.0106,0.0101,0.0104,0.0067,0.0038,-0.0024,-0.0053,-0.011,-0.0159,-0.0234,-0.0258,-0.0388,-0.0366,-0.0411,-0.0468,-0.0471,-0.0444,-0.0446,-0.0444,-0.0484,-0.0483,-0.0482,-0.0481,-0.0481,0,0.0183,0.0159,0.0168,0.0158,0.0121,0.0131,0.0121,0.0071,0.0055,0.0003,-0.0003,-0.0121,-0.0146,-0.0257,-0.0369,-0.0371,-0.0509,-0.0526,-0.0531,-0.0528,-0.0556,-0.0551,-0.0598,-0.0598,-0.0598,-0.0598,-0.0598,0,0.0204,0.0202,0.0205,0.0212,0.0233,0.0189,0.0222,0.018,0.0142,0.0118,0.0053,0.0,-0.0146,-0.0248,-0.0358,-0.0462,-0.0493,-0.0527,-0.054,-0.0549,-0.0543,-0.0558,-0.0553,-0.0598,-0.0598,-0.0598,-0.0598,0,0.0239,0.0237,0.0242,0.0241,0.0266,0.0285,0.0326,0.0331,0.0294,0.0264,0.0261,0.0111,-0.0019,-0.0159,-0.0341,-0.0413,-0.0539,-0.0558,-0.0529,-0.054,-0.0519,-0.0514,-0.0559,-0.0558,-0.0557,-0.0556,-0.0556,0,0.0254,0.0271,0.0304,0.0351,0.0374,0.0428,0.0478,0.0436,0.0422,0.0304,0.0271,0.016,0.0058,-0.0151,-0.0325,-0.049,-0.0513,-0.0545,-0.0559,-0.0512,-0.052,-0.0516,-0.0512,-0.0555,-0.0554,-0.0554,-0.0554,0,0.0276,0.0301,0.0314,0.0431,0.0505,0.0537,0.0582,0.058,0.0491,0.0478,0.0312,0.0183,0.0044,-0.0153,-0.025,-0.0396,-0.0522,-0.0537,-0.0539,-0.0553,-0.0508,-0.0516,-0.0512,-0.0551,-0.0552,-0.0552,-0.0552,0,0.0308,0.0318,0.0381,0.0477,0.0579,0.0596,0.061,0.0584,0.0551,0.0414,0.0344,0.0176,0.0066,-0.0107,-0.0248,-0.0336,-0.0361,-0.0386,-0.0397,-0.0401,-0.036,-0.028,-0.0263,0,0,0,0,0,0.0331,0.0351,0.0433,0.0499,0.0612,0.0645,0.0651,0.0632,0.057,0.0482,0.041,0.0271,0.0061,-0.0067,-0.0142,-0.024,-0.0382,-0.0332,-0.0416,-0.0537,-0.054,-0.0517,0,0,0,0,0,0,0.0331,0.0398,0.0414,0.0529,0.0598,0.0654,0.0648,0.0581,0.0517,0.0456,0.0349,0.0286,0.0087,0.0136,-0.0126,-0.0165,-0.0224,-0.0429,-0.0431,-0.0535,-0.0538,-0.054,-0.0518,0,0,0,0,0]}]]